Flag for United Kingdom Weather past 2 weeks in Edinburgh, Scotland, United Kingdom

Now
48 °F

Partly cloudy.


Feels Like: 44 °F
Forecast: 44 / 58 °F
Wind: 10 mph from West

Location: Edinburgh Airport

Current Time: May 25, 2015 at 12:53:44 AM

Latest Report: May 25, 2015 at 12:20 AM


Visibility: N/A

Pressure: 30.04 "Hg

Humidity: 76%

Dew point: 41 °F

Location of EdinburghLocation

Historic Weather in Edinburgh — Graph

°F

Edinburgh temperature yesterday

Maximum temperature yesterday: 57 °F (at 3:20 PM)
Minimum temperature yesterday: 48 °F (at 6:20 AM)
Average temperature yesterday: 52 °F

Past Weeks' High & Low Weather Summary

 TemperatureHumidityPressure
High66 °F (May 23, 4:20 PM)100% (May 14, 5:50 AM)30.30 "Hg (May 14, 5:50 AM)
Low32 °F (May 15, 2:50 AM)43% (May 23, 3:50 PM)29.36 "Hg (May 18, 6:20 PM)
Average50 °F74%29.93 "Hg
* Reported May 9 11:20 PM — May 24 11:50 PM, Edinburgh, Weather by CustomWeather, © 2015

Note: Actual official high and low records may vary slightly from our data, if they occured in-between our weather recording intervals... More about our weather records

Advertising

Edinburgh weather history for previous 24 hours

 ConditionsComfort  
Time TempWeatherWind HumidityBarometerVisibility
11:50 PM
Sun, May 24
48 °FPassing clouds.9 mph76%30.04 "HgN/A
11:20 PM48 °FOvercast.10 mph76%30.04 "HgN/A
10:20 PM48 °FOvercast.12 mph76%30.04 "HgN/A
9:50 PM48 °FPartly sunny.9 mph76%30.04 "HgN/A
9:20 PM48 °FScattered clouds.13 mph76%30.04 "HgN/A
8:50 PM50 °FScattered clouds.14 mph71%30.04 "HgN/A
8:20 PM50 °FScattered clouds.13 mph71%30.04 "HgN/A
7:50 PM52 °FScattered clouds.13 mph67%30.04 "HgN/A
7:20 PM52 °FScattered clouds.14 mph67%30.04 "HgN/A
6:50 PM54 °FBroken clouds.16 mph63%30.04 "HgN/A
6:20 PM54 °FPassing clouds.15 mph58%30.01 "HgN/A
5:50 PM54 °FBroken clouds.17 mph58%30.01 "HgN/A
5:20 PM54 °FBroken clouds.18 mph58%30.01 "HgN/A
4:50 PM54 °FPartly sunny.16 mph58%30.01 "HgN/A
4:20 PM55 °FBroken clouds.16 mph59%30.01 "HgN/A
3:50 PM54 °FBroken clouds.16 mph58%30.01 "HgN/A
3:20 PM57 °FBroken clouds.20 mph55%30.01 "HgN/A
2:50 PM54 °FPartly sunny.13 mph58%30.01 "HgN/A
2:20 PM55 °FPartly sunny.14 mph55%30.01 "HgN/A
1:50 PM54 °FPartly sunny.15 mph58%30.01 "HgN/A
1:20 PM55 °FBroken clouds.17 mph55%30.01 "HgN/A
12:50 PM54 °FPartly sunny.12 mph58%30.01 "HgN/A
12:20 PM55 °FPartly sunny.14 mph59%30.01 "HgN/A
11:50 AM54 °FBroken clouds.16 mph58%30.01 "HgN/A
11:20 AM52 °FBroken clouds.14 mph62%30.01 "HgN/A
10:50 AM54 °FScattered clouds.17 mph58%30.01 "HgN/A
10:20 AM52 °FScattered clouds.14 mph67%30.01 "HgN/A
9:50 AM52 °FScattered clouds.16 mph72%29.98 "HgN/A
9:20 AM52 °FScattered clouds.14 mph67%29.98 "HgN/A
8:50 AM50 °FScattered clouds.12 mph71%29.98 "HgN/A
8:20 AM50 °FScattered clouds.12 mph71%29.98 "HgN/A
7:50 AM50 °FScattered clouds.10 mph71%29.98 "HgN/A
7:20 AM48 °FScattered clouds.13 mph82%29.98 "HgN/A
6:50 AM48 °FScattered clouds.13 mph76%29.98 "HgN/A
6:20 AM48 °FPartly sunny.13 mph76%29.95 "HgN/A
5:50 AM50 °FBroken clouds.15 mph76%29.95 "HgN/A
5:20 AM52 °FMostly cloudy.15 mph94%29.92 "HgN/A
4:50 AM52 °FPartly cloudy.16 mph94%29.92 "HgN/A
4:20 AM54 °FPartly cloudy.14 mph88%29.92 "HgN/A
3:50 AM54 °FPartly cloudy.12 mph94%29.92 "HgN/A
3:20 AM54 °FLight rain. Mostly cloudy.10 mph94%29.92 "HgN/A
2:50 AM54 °FLight rain. Passing clouds.17 mph88%29.95 "HgN/A
2:20 AM54 °FLight rain. Partly cloudy.15 mph88%29.95 "HgN/A
1:50 AM54 °FLight rain. Passing clouds.16 mph88%29.95 "Hg6 mi
1:20 AM54 °FClear.15 mph88%29.98 "Hg10 mi
12:50 AM54 °FPassing clouds.16 mph82%29.98 "HgN/A
12:20 AM54 °FPassing clouds.15 mph82%30.01 "HgN/A
Weather by CustomWeather, © 2015

See weather overviewHow to use our weather pages